Weather in Kukshumy

Russia / Chuvash Republic     55˚52′36″N   46˚20′09″E
temp.,
°C
wind,
m/s
gust,
m/s
humid.,
%
clouds,
%
prec.,
mm/h
press.,
hPa
HPBL,
m
15 january, fri
fri1500:00−12˚se4893100 0.1 1010322
03:00−13˚se369599 0.2 1011155
06:00−15˚s229684 0.0 101020
09:00−16˚se119762 0.0 101120
12:00−13˚wsw019575 0.0 101288
15:00−13˚ne229486 0.0 101225
18:00−14˚ene1295100 0.0 101120
21:00−14˚ne3696100 0.0 1009139
16 january, sat
sat1600:00−13˚ne4996100 0.1 1007262
03:00−13˚ne5995100 1.3 1003402
06:00−12˚ne61294100 4.4 999552
09:00−12˚ne51094100 6.6 997518
12:00−11˚nne4894100 1.7 996437
15:00−11˚n3695100 2.1 996338
18:00−13˚nw259696 0.3 997127
21:00−14˚wnw359797 0.4 999155
17 january, sun
sun1700:00−15˚w3697100 0.1 1000148
03:00−15˚wnw3796100 0.3 1002275
06:00−16˚wnw3796100 0.1 1004300
09:00−17˚wnw3697100 0.2 1007227
12:00−17˚wnw3594100 0.0 1010392
15:00−20˚wnw2398100 0.1 101278
18:00−25˚nnw229983 0.0 101520
21:00−27˚nw119954 0.0 101719
18 january, mon
mon1800:00−28˚nw1110052 0.0 101819
03:00−28˚nw0110065 0.0 101919
06:00−28˚n129993 0.0 101919
09:00−28˚nw119887 0.0 102019
12:00−23˚nw009598 0.0 1020102
15:00−24˚nnw119767 0.0 102020
18:00−26˚ese019791 0.0 102020
21:00−25˚ene009695 0.0 102020
19 january, tue
tue1900:00−24˚ene1195100 0.0 102019
03:00−23˚ne1295100 0.0 102023
06:00−23˚ne2395100 0.0 102078
09:00−22˚ne2495100 0.0 1020137
12:00−19˚ne2392100 0.0 1020229
15:00−19˚nne2594100 0.0 1020214
18:00−19˚nne2595100 0.0 1021182
21:00−20˚nne2596100 0.0 1021147